Location: Longueuil
(45.5369°N, 73.5107°W)
Time: 04:55:22
(UTC-04:00)

ISS - Pass Details

Date: 31 January 2023
Orbit: 413 x 423 km, 51.6° (Epoch: 02 April)

Event Time Altitude Azimuth Distance (km) Brightness Sun altitude
Rises 17:57:34 0° 298° (WNW) 2,428 0.9 -10.5°
Reaches altitude 10° 17:59:43 10° 302° (WNW) 1,557 -0.2 -10.9°
Maximum altitude 18:03:12 63° 25° (NNE) 495 -3.6 -11.5°
Enters shadow 18:05:47 17° 104° (ESE) 1,205 -2.0 -11.9°
